Location: La Brionne
(46.1728°N, 1.7849°E)
Time: 19:18:52
(UTC+00:00)

USA 267 - Pass Details

Date: 31 October 2021
Orbit: 1101 x 1107 km, 123.0° (Epoch: 27 November)

Event Time Altitude Azimuth Distance (km) Brightness Sun altitude
Exits shadow 18:08:24 17° 115° (ESE) 2,464 4.6 -15.8°
Maximum altitude 18:13:36 75° 33° (NNE) 1,139 3.2 -16.7°
Drops below altitude 10° 18:20:08 10° 309° (NW) 2,964 6.2 -17.8°
Sets 18:22:37 0° 308° (NW) 3,924 7.0 -18.2°
